Wind_Speed
34 34 35 35 36 37 38 39 40 41 41 41 41 41 42 42 42 43 43 43 44 44 44 45 45 45 46 46 46 46 47 47 46 46 46 46 47 46 47 46 46 46 45
32 33 34 35 35 36 37 38 39 40 41 41 42 42 43 43 44 44 44 45 45 46 46 46 47 47 47 48 48 49 49 50 50 49 48 48 48 48 48 49 48 48 48
32 33 33 34 35 36 36 37 38 39 40 41 42 42 43 44 44 45 45 46 46 47 47 47 48 49 50 51 51 51 51 51 52 52 51 51 52 51 51 51 51 51 50
33 33 33 34 34 36 37 38 38 39 39 40 41 42 43 44 45 45 45 46 47 48 48 48 49 50 51 52 52 52 53 53 53 53 53 53 54 54 53 53 53 54 53
33 33 34 34 35 36 37 38 38 38 39 40 41 43 44 45 46 46 46 47 48 49 50 50 51 52 53 53 53 53 54 53 54 54 54 54 55 56 56 56 55 55 56
33 34 34 35 35 36 36 37 38 39 40 40 42 43 44 45 46 47 48 48 49 50 51 52 53 53 53 53 54 53 53 54 55 55 56 55 55 56 57 58 58 57 57
33 33 34 35 35 36 37 37 38 39 40 40 41 42 43 45 46 47 48 48 49 50 51 52 52 52 52 53 53 54 53 54 55 55 56 56 57 58 59 59 59 59 59
33 34 35 35 36 36 37 38 39 39 39 40 41 42 43 44 46 47 48 49 49 49 50 51 51 51 52 53 54 55 55 56 57 57 57 57 57 58 59 60 61 61 60
33 33 34 35 36 37 37 38 39 39 40 41 42 42 43 44 45 46 47 49 49 50 50 50 51 52 53 54 55 56 56 56 57 57 58 57 58 59 60 60 61 61 61
34 34 34 34 35 36 37 38 39 40 41 41 42 43 44 44 45 45 46 48 49 50 50 51 52 53 54 54 56 58 59 58 58 59 59 59 59 59 60 60 60 61 62
35 35 35 35 35 36 37 38 39 40 41 42 42 43 44 45 46 47 47 47 48 49 50 52 53 54 54 54 56 58 60 60 59 59 59 59 60 60 60 61 61 62 63
35 35 35 35 36 36 38 39 40 41 42 43 43 44 45 46 47 48 49 49 49 50 51 52 53 54 55 55 56 58 60 60 60 59 59 59 60 60 61 61 61 61 62
35 35 36 36 37 38 39 40 41 42 42 43 44 44 45 46 47 48 49 50 51 51 52 52 53 54 55 55 56 57 59 59 59 58 58 59 60 61 62 61 61 61 61
36 37 37 37 38 39 40 41 42 42 43 44 45 45 46 46 47 48 49 50 51 52 52 53 54 54 55 55 55 56 58 58 58 58 58 58 59 60 61 61 61 61 60
38 38 38 39 40 40 41 41 42 43 43 44 45 46 47 47 48 49 49 50 51 52 53 54 54 55 55 55 55 55 57 58 58 58 58 58 57 57 58 59 59 59 59
39 40 40 40 41 41 41 42 42 43 43 44 45 47 48 48 49 49 50 50 51 51 52 52 53 53 54 54 55 55 56 56 57 57 57 56 55 56 56 56 57 57 57
40 40 41 41 42 42 42 42 42 43 44 45 45 46 47 48 49 50 50 51 51 51 51 51 51 51 52 53 53 54 54 54 54 54 55 54 54 55 55 55 55 56 56
40 40 41 42 42 42 42 43 43 44 44 45 45 46 46 47 48 49 50 50 50 51 51 51 51 51 51 51 51 52 52 51 51 51 52 52 52 53 53 54 54 54 55
40 41 41 42 42 43 43 43 44 44 45 45 45 45 46 47 48 48 49 50 51 51 51 51 51 51 50 50 50 51 51 51 51 50 51 51 50 51 52 52 52 52 52
41 42 42 42 42 43 43 43 44 45 45 45 45 46 47 47 48 48 49 50 50 50 50 50 50 49 49 49 50 50 50 50 50 49 49 49 49 50 50 50 50 49 49
42 42 43 43 43 43 44 44 45 45 45 46 46 47 48 49 49 49 49 49 49 49 50 49 49 49 49 49 49 49 49 49 48 48 48 48 48 49 49 49 48 47 47
41 42 42 43 43 44 44 44 45 45 46 47 48 48 49 49 49 49 49 49 49 49 49 49 49 49 49 49 48 48 48 48 47 46 46 47 47 47 46 46 46 46 45
42 42 43 43 44 44 44 45 45 46 47 47 48 48 48 48 48 49 48 48 48 48 48 48 48 48 48 48 48 47 47 47 46 45 45 45 45 45 44 43 43 44 43
43 44 44 44 44 44 45 45 45 46 47 47 47 47 47 47 48 48 48 48 48 48 47 47 46 46 47 47 46 47 46 46 45 44 43 43 43 42 42 41 41 41 41
44 45 45 45 45 45 45 45 45 46 46 46 46 47 47 47 47 47 47 47 47 47 46 46 45 44 44 44 45 45 45 45 44 43 42 42 42 41 40 40 40 40 39
45 45 45 45 45 45 44 45 45 45 45 45 46 46 46 46 46 46 46 46 46 45 45 45 45 44 44 44 43 43 43 42 42 41 41 40 39 39 39 39 39 39 38
Wind_Direction
270 271 271 272 272 271 269 267 266 267 267 267 267 267 267 267 268 269 269 269 268 267 268 268 267 265 265 265 264 263 263 262 262 262 261 261 261 261 261 262 261 261 260
272 272 272 273 274 273 271 269 268 267 267 267 267 268 268 267 268 268 269 270 270 269 269 268 268 267 266 266 266 264 264 263 263 263 262 261 262 262 263 263 263 262 261
274 274 274 275 275 274 273 271 270 269 269 268 268 269 268 268 269 269 270 271 271 270 269 268 269 269 268 267 267 266 265 265 264 264 264 263 262 262 262 263 264 264 263
276 276 276 277 276 276 275 273 273 272 271 270 270 269 269 269 268 269 270 271 272 270 269 268 269 270 269 268 268 267 266 266 266 266 265 264 265 264 263 263 264 263 264
278 278 278 278 278 278 277 276 275 275 274 272 271 271 270 269 269 270 270 272 272 271 270 270 270 271 270 270 269 268 267 267 267 266 265 266 266 266 265 264 264 264 265
281 279 279 279 279 279 279 277 277 276 276 274 273 273 272 271 270 270 271 272 272 273 272 272 272 272 271 270 269 267 267 267 267 267 266 266 266 266 266 265 264 265 265
283 280 280 281 280 280 280 279 278 277 276 275 275 275 275 273 271 271 272 273 273 274 273 272 272 271 271 270 268 267 267 267 268 268 267 267 267 266 266 266 265 265 265
284 282 280 281 281 282 282 280 279 278 277 277 276 277 277 276 273 272 273 274 274 274 274 273 272 271 271 270 269 268 268 268 269 269 268 268 268 267 267 267 267 266 265
285 284 283 283 283 282 281 281 280 279 279 278 278 279 279 278 277 275 274 275 275 275 275 274 272 272 272 272 270 269 269 269 270 270 269 268 269 269 268 268 267 267 266
287 287 286 286 285 284 282 281 281 281 280 280 280 279 279 280 279 278 277 276 276 276 276 276 274 273 273 273 272 270 269 270 271 271 270 269 270 270 269 268 268 268 268
288 288 287 286 286 284 283 282 283 283 282 281 281 281 281 280 280 279 278 279 278 278 278 278 276 274 275 275 273 271 271 271 271 271 270 270 270 269 270 269 268 268 268
288 288 286 286 286 285 285 284 284 284 284 283 283 282 282 282 282 281 280 280 280 279 279 279 278 276 276 275 275 273 271 271 270 270 270 271 270 270 269 270 269 268 269
287 288 287 286 286 286 286 286 285 285 285 285 284 284 284 284 284 283 282 281 280 280 280 280 280 278 277 276 276 275 273 271 271 271 272 271 271 270 268 269 269 269 269
287 287 288 287 287 287 287 287 286 286 286 286 285 285 285 285 286 285 284 282 281 281 280 281 281 279 278 277 277 276 275 272 272 273 272 271 271 269 268 268 269 269 269
286 287 288 288 288 288 288 288 287 287 287 287 287 286 286 286 286 286 285 284 283 282 282 282 281 280 278 278 278 277 276 274 273 273 272 271 270 269 269 268 268 268 268
286 286 288 288 289 289 289 289 289 289 289 289 288 288 287 287 287 287 287 286 285 285 284 283 283 282 281 280 279 278 276 276 275 274 273 272 271 269 269 269 268 268 268
286 287 288 289 289 289 289 289 289 289 289 290 290 289 289 288 288 288 288 287 286 286 285 284 283 283 282 281 279 279 278 277 277 276 275 274 272 271 269 269 268 269 269
287 288 288 289 290 290 289 290 290 291 291 291 291 291 291 291 290 289 289 288 287 286 286 285 284 283 283 282 281 279 278 278 278 277 276 275 273 272 270 269 269 268 268
288 288 289 289 290 290 290 290 291 292 292 292 292 292 292 292 291 291 290 289 288 287 286 286 285 284 283 283 282 280 279 278 278 277 276 275 274 273 271 270 269 268 268
290 290 290 290 291 291 291 291 292 292 293 293 293 293 293 292 292 292 292 291 290 288 287 287 286 285 284 283 283 282 281 280 280 278 276 276 275 274 273 272 270 269 267
291 291 291 292 292 292 292 292 292 292 293 293 293 294 294 293 293 293 292 292 291 290 288 287 286 285 284 284 284 283 282 281 280 279 276 275 275 274 274 273 271 270 268
293 293 292 292 293 293 293 293 293 293 293 293 294 294 294 294 294 293 293 293 293 292 290 288 286 285 284 283 283 283 282 282 280 279 277 276 274 273 272 271 271 270 269
294 294 293 293 293 294 294 294 294 294 294 295 295 295 295 295 295 294 294 294 294 293 291 289 287 286 284 283 283 282 282 281 280 279 277 276 275 273 271 270 270 269 268
294 294 294 294 294 294 294 294 294 295 295 295 295 296 296 295 295 295 295 295 295 294 292 290 289 288 286 284 282 282 281 281 280 278 276 275 273 271 270 267 266 266 267
294 294 294 295 295 295 295 294 295 295 296 296 296 296 296 295 295 296 296 296 296 295 293 291 290 289 287 285 283 282 281 280 279 278 277 274 271 269 268 267 265 265 265
295 295 295 296 296 296 296 296 296 296 296 297 297 297 297 297 296 296 297 297 297 296 294 292 291 290 288 286 285 283 282 280 279 278 276 273 270 268 266 265 264 264 264
Height
5715 5714 5714 5714 5714 5713 5713 5713 5714 5714 5715 5715 5716 5716 5716 5717 5717 5717 5717 5717 5717 5718 5718 5718 5719 5720 5721 5722 5723 5724 5725 5727 5728 5730 5732 5733 5734 5736 5738 5739 5740 5742 5743
5706 5706 5706 5705 5705 5704 5704 5703 5704 5704 5704 5704 5705 5705 5706 5706 5706 5706 5706 5706 5706 5706 5706 5706 5707 5707 5708 5709 5710 5711 5712 5713 5714 5716 5718 5721 5723 5724 5725 5726 5727 5729 5730
5698 5698 5697 5697 5696 5695 5695 5694 5693 5693 5693 5694 5694 5694 5694 5694 5695 5695 5695 5694 5694 5694 5694 5694 5694 5694 5695 5695 5696 5697 5698 5699 5700 5701 5703 5705 5708 5711 5713 5713 5714 5715 5717
5690 5689 5689 5688 5687 5686 5685 5684 5684 5683 5683 5683 5683 5683 5683 5683 5683 5683 5683 5682 5682 5681 5681 5681 5681 5681 5681 5681 5681 5682 5683 5684 5685 5686 5687 5689 5692 5694 5698 5700 5700 5701 5703
5681 5681 5680 5679 5678 5677 5675 5675 5674 5673 5672 5672 5671 5671 5671 5671 5671 5671 5670 5670 5669 5668 5668 5667 5667 5667 5667 5667 5667 5667 5668 5668 5670 5671 5672 5673 5675 5677 5679 5683 5685 5686 5687
5673 5672 5671 5670 5669 5668 5666 5665 5664 5663 5662 5661 5660 5660 5659 5659 5659 5659 5658 5657 5656 5655 5654 5653 5653 5652 5652 5652 5652 5652 5653 5653 5654 5655 5656 5657 5659 5661 5662 5664 5667 5669 5671
5665 5663 5662 5661 5660 5659 5657 5656 5654 5653 5652 5650 5649 5648 5647 5647 5646 5646 5645 5644 5643 5641 5640 5639 5638 5637 5637 5637 5637 5637 5638 5638 5639 5639 5640 5641 5642 5643 5644 5646 5648 5650 5653
5656 5655 5653 5652 5651 5649 5648 5646 5644 5643 5641 5640 5639 5637 5636 5634 5633 5633 5632 5630 5629 5627 5625 5624 5623 5622 5622 5622 5622 5622 5622 5622 5623 5623 5623 5624 5625 5626 5626 5627 5629 5631 5635
5648 5646 5644 5643 5641 5640 5638 5636 5635 5633 5631 5629 5628 5626 5624 5622 5621 5619 5618 5616 5615 5613 5611 5610 5608 5607 5607 5606 5606 5606 5606 5606 5606 5606 5606 5607 5608 5608 5608 5609 5609 5611 5614
5639 5637 5635 5633 5631 5630 5628 5626 5624 5622 5621 5619 5617 5615 5613 5610 5608 5606 5604 5603 5601 5599 5597 5595 5594 5593 5592 5591 5590 5590 5590 5590 5590 5589 5589 5590 5590 5590 5591 5591 5591 5591 5593
5629 5627 5626 5624 5622 5620 5618 5616 5614 5612 5610 5608 5605 5603 5601 5598 5596 5593 5591 5589 5587 5585 5583 5581 5579 5577 5576 5575 5574 5574 5573 5573 5573 5572 5572 5572 5572 5572 5572 5572 5573 5573 5574
5620 5618 5616 5614 5612 5610 5608 5606 5604 5601 5599 5596 5594 5591 5588 5586 5583 5581 5578 5576 5573 5571 5569 5566 5564 5562 5560 5559 5558 5557 5557 5556 5556 5555 5555 5555 5554 5554 5554 5554 5555 5555 5555
5610 5608 5607 5605 5603 5600 5598 5595 5593 5590 5587 5585 5582 5579 5576 5573 5570 5567 5564 5562 5559 5557 5554 5551 5549 5547 5544 5543 5542 5540 5540 5539 5538 5538 5537 5537 5536 5536 5536 5536 5536 5536 5537
5601 5599 5597 5595 5592 5589 5587 5584 5581 5579 5576 5573 5570 5567 5564 5560 5557 5554 5551 5548 5545 5542 5539 5536 5534 5531 5529 5527 5525 5524 5522 5522 5521 5520 5520 5519 5518 5517 5517 5517 5518 5518 5519
5591 5589 5586 5584 5581 5579 5576 5573 5570 5567 5564 5561 5558 5554 5551 5548 5544 5541 5537 5534 5530 5527 5524 5521 5518 5515 5513 5511 5509 5507 5506 5505 5504 5503 5502 5501 5500 5499 5499 5499 5500 5500 5501
5580 5578 5576 5573 5570 5567 5564 5561 5558 5555 5552 5549 5545 5542 5538 5535 5531 5527 5523 5520 5516 5512 5509 5506 5503 5500 5497 5494 5492 5490 5489 5488 5487 5486 5485 5484 5482 5482 5482 5482 5482 5482 5483
5570 5567 5565 5562 5559 5556 5553 5550 5547 5543 5540 5536 5533 5529 5525 5521 5517 5513 5509 5505 5502 5498 5494 5491 5488 5485 5482 5479 5476 5474 5473 5472 5470 5469 5468 5467 5466 5465 5465 5465 5465 5466 5466
5559 5556 5554 5551 5548 5545 5542 5538 5535 5531 5528 5524 5520 5516 5512 5508 5504 5499 5495 5491 5487 5484 5480 5476 5473 5470 5467 5463 5461 5459 5457 5456 5455 5453 5452 5451 5450 5448 5448 5448 5449 5450 5450
5548 5545 5542 5539 5536 5533 5530 5526 5523 5519 5515 5511 5507 5503 5498 5494 5490 5486 5481 5477 5473 5469 5465 5462 5458 5455 5452 5449 5446 5444 5442 5441 5439 5438 5436 5434 5434 5433 5432 5432 5433 5434 5435
5537 5534 5531 5528 5525 5521 5518 5514 5510 5506 5502 5498 5494 5490 5485 5481 5476 5472 5467 5462 5458 5454 5450 5447 5443 5440 5438 5435 5431 5428 5427 5426 5424 5423 5421 5419 5418 5417 5416 5416 5416 5418 5419
5526 5523 5520 5517 5513 5509 5506 5502 5498 5494 5489 5485 5481 5476 5471 5467 5462 5458 5453 5448 5444 5440 5436 5433 5430 5426 5423 5420 5417 5414 5411 5409 5408 5407 5406 5405 5403 5402 5401 5401 5401 5402 5403
5515 5511 5508 5505 5501 5497 5493 5489 5485 5481 5476 5472 5467 5463 5458 5453 5448 5443 5439 5434 5429 5425 5421 5418 5415 5411 5408 5405 5402 5399 5397 5395 5394 5393 5391 5390 5389 5388 5388 5387 5387 5388 5388
5503 5500 5496 5492 5489 5485 5481 5477 5472 5468 5463 5458 5453 5449 5444 5439 5434 5429 5425 5420 5415 5411 5407 5403 5400 5397 5394 5391 5388 5385 5383 5381 5379 5378 5377 5375 5375 5374 5374 5374 5374 5374 5374
5492 5488 5484 5480 5476 5472 5468 5463 5459 5454 5450 5445 5440 5435 5430 5425 5420 5415 5411 5406 5402 5397 5393 5389 5386 5383 5379 5376 5374 5371 5369 5367 5365 5364 5363 5362 5361 5361 5361 5361 5361 5361 5362
5479 5475 5471 5467 5463 5459 5455 5450 5446 5441 5436 5432 5427 5422 5417 5412 5407 5402 5397 5392 5388 5382 5378 5375 5371 5368 5366 5362 5359 5356 5355 5353 5351 5350 5349 5349 5348 5348 5348 5348 5349 5349 5350
5467 5463 5459 5455 5450 5446 5442 5437 5433 5428 5423 5418 5414 5409 5404 5399 5394 5390 5385 5379 5374 5369 5364 5360 5357 5354 5351 5348 5345 5343 5341 5339 5337 5336 5336 5335 5335 5335 5335 5336 5336 5337 5338